GEC14A KJFK-EDDF

Flight info

Callsign GEC14A
Flight time N/A
Altitude 31000
Route MERIT DCT HFD DCT PUT DCT BOS Q75 COPLY Q475 SCOTS/N0486F330 Q475 BITRA DCT PERLU DCT NICSO/M084F340 DCT 48N050W 49N040W 51N030W 53N020W DCT MALOT DCT GISTI/N0481F350 DCT MORAG DCT KAMJU DCT REDFA DCT TACHA DCT NOLRU DCT DIXAT DIXAT1A
Aircraft MD11/H-SDE1E2E3FGHIJ2J3J4J5M1RWXY/LB1D1

Departure

Time N/A
Airport John F. Kennedy International Airport (KJFK)

Arrival

Time 2026-04-16 03:13
Airport Frankfurt Main Airport (EDDF)
Time Latitude Longitude Altitude Speed Heading
2026-04-15 20:35 40.97385 -73.48912 11207 ft 373 kts 26°
2026-04-15 20:35 40.98856 -73.47642 11651 ft 375 kts 26°
2026-04-15 20:35 41.01029 -73.45765 12308 ft 378 kts 26°
2026-04-15 20:35 41.03244 -73.43853 12948 ft 382 kts 26°
2026-04-15 20:36 41.05478 -73.41925 13577 ft 385 kts 26°
2026-04-15 20:36 41.07734 -73.39979 14131 ft 388 kts 26°
2026-04-15 20:36 41.10005 -73.38019 14631 ft 392 kts 26°
2026-04-15 20:36 41.12307 -73.36032 15134 ft 396 kts 26°
2026-04-15 20:37 41.14625 -73.34029 15623 ft 399 kts 26°
2026-04-15 20:37 41.16964 -73.32006 16118 ft 403 kts 27°
2026-04-15 20:37 41.19323 -73.29963 16575 ft 406 kts 27°
2026-04-15 20:37 41.21704 -73.27900 17072 ft 410 kts 27°
2026-04-15 20:38 41.24097 -73.25825 17522 ft 413 kts 28°
2026-04-15 20:38 41.26484 -73.23753 17959 ft 417 kts 27°
2026-04-15 20:38 41.28922 -73.21635 18379 ft 420 kts 28°
2026-04-15 20:38 41.31409 -73.19472 18762 ft 423 kts 28°
2026-04-15 20:39 41.33848 -73.17349 19198 ft 426 kts 27°
2026-04-15 20:39 41.36332 -73.15167 19582 ft 430 kts 30°
2026-04-15 20:39 41.38655 -73.12600 19910 ft 440 kts 43°
2026-04-15 20:39 41.40558 -73.09363 20273 ft 448 kts 52°
2026-04-15 20:40 41.42189 -73.05789 20602 ft 453 kts 57°
2026-04-15 20:40 41.43719 -73.02092 20990 ft 456 kts 58°
2026-04-15 20:40 41.45241 -72.98366 21384 ft 458 kts 58°
2026-04-15 20:40 41.46791 -72.94640 21714 ft 461 kts 57°
2026-04-15 20:41 41.48378 -72.90909 22130 ft 463 kts 57°
2026-04-15 20:41 41.49994 -72.87172 22518 ft 466 kts 57°
2026-04-15 20:41 41.51608 -72.83473 22907 ft 469 kts 56°
2026-04-15 20:41 41.53260 -72.79700 23297 ft 472 kts 57°
2026-04-15 20:42 41.54927 -72.75897 23664 ft 474 kts 57°
2026-04-15 20:42 41.56598 -72.72077 24009 ft 477 kts 56°
2026-04-15 20:42 41.58272 -72.68243 24344 ft 480 kts 57°
2026-04-15 20:42 41.59955 -72.64384 24674 ft 482 kts 57°
2026-04-15 20:43 41.61643 -72.60503 25008 ft 485 kts 56°
2026-04-15 20:43 41.63340 -72.56599 25350 ft 487 kts 56°
2026-04-15 20:43 41.65064 -72.52677 25733 ft 489 kts 56°
2026-04-15 20:43 41.66811 -72.48759 26073 ft 492 kts 55°
2026-04-15 20:44 41.68582 -72.44824 26412 ft 494 kts 55°
2026-04-15 20:44 41.70370 -72.40863 26764 ft 497 kts 55°
2026-04-15 20:44 41.72140 -72.36942 27091 ft 499 kts 55°
2026-04-15 20:44 41.73941 -72.32946 27414 ft 502 kts 55°
2026-04-15 20:45 41.75748 -72.28931 27734 ft 505 kts 55°
2026-04-15 20:45 41.77560 -72.24895 28045 ft 507 kts 55°
2026-04-15 20:45 41.79382 -72.20831 28363 ft 509 kts 55°
2026-04-15 20:45 41.81209 -72.16748 28684 ft 512 kts 55°
2026-04-15 20:46 41.83050 -72.12629 28999 ft 515 kts 55°
2026-04-15 20:46 41.84892 -72.08501 29325 ft 517 kts 55°
2026-04-15 20:46 41.86744 -72.04345 29644 ft 519 kts 55°
2026-04-15 20:46 41.88575 -72.00229 29932 ft 521 kts 55°
2026-04-15 20:47 41.90439 -71.96036 30160 ft 524 kts 55°
2026-04-15 20:47 41.92306 -71.91827 30391 ft 525 kts 55°
2026-04-15 20:47 41.94179 -71.87601 30672 ft 526 kts 55°
2026-04-15 20:47 41.96065 -71.83397 30862 ft 526 kts 54°
2026-04-15 20:48 41.97999 -71.79212 30901 ft 527 kts 53°
2026-04-15 20:48 42.01948 -71.70870 30915 ft 528 kts 53°
2026-04-15 20:49 42.05884 -71.62594 30919 ft 528 kts 53°
2026-04-15 20:49 42.09839 -71.54233 30916 ft 528 kts 53°
2026-04-15 20:50 42.13772 -71.45877 30925 ft 528 kts 53°
2026-04-15 20:50 42.17686 -71.37535 30934 ft 526 kts 53°
2026-04-15 20:51 42.21549 -71.29280 30934 ft 526 kts 53°
2026-04-15 20:51 42.25443 -71.20938 30936 ft 525 kts 53°
2026-04-15 20:52 42.29323 -71.12601 30939 ft 524 kts 53°
2026-04-15 20:52 42.33179 -71.04293 30982 ft 524 kts 53°
2026-04-15 20:53 42.36902 -70.95802 30985 ft 527 kts 58°
2026-04-15 20:53 42.39958 -70.86751 30981 ft 530 kts 63°
2026-04-15 20:54 42.42826 -70.77563 30982 ft 529 kts 62°
2026-04-15 20:54 42.45734 -70.68408 30980 ft 529 kts 62°
2026-04-15 20:55 42.48682 -70.59264 30983 ft 529 kts 62°
2026-04-15 20:55 42.51608 -70.50182 30982 ft 529 kts 62°
2026-04-15 20:56 42.54554 -70.41022 30974 ft 529 kts 62°
2026-04-15 20:56 42.57493 -70.31878 30980 ft 529 kts 62°
2026-04-15 20:57 42.60425 -70.22722 30975 ft 529 kts 62°
2026-04-15 20:57 42.63347 -70.13527 30984 ft 529 kts 62°
2026-04-15 20:58 42.66257 -70.04352 30977 ft 529 kts 62°
2026-04-15 20:58 42.69136 -69.95199 30963 ft 530 kts 62°
2026-04-15 20:59 42.72018 -69.85981 30980 ft 530 kts 63°
2026-04-15 20:59 42.74899 -69.76748 30973 ft 530 kts 63°
2026-04-15 21:00 42.77772 -69.67514 30980 ft 530 kts 63°
2026-04-15 21:00 42.80639 -69.58267 30982 ft 530 kts 63°
2026-04-15 21:01 42.83501 -69.49006 30980 ft 531 kts 63°
2026-04-15 21:01 42.86361 -69.39717 30982 ft 531 kts 63°
2026-04-15 21:02 42.89213 -69.30420 30982 ft 532 kts 63°
2026-04-15 21:02 42.92042 -69.21166 30984 ft 532 kts 63°
2026-04-15 21:03 42.94888 -69.11825 30987 ft 534 kts 63°
2026-04-15 21:03 42.97732 -69.02453 30987 ft 535 kts 63°
2026-04-15 21:04 43.00554 -68.93040 30988 ft 536 kts 63°
2026-04-15 21:04 43.03367 -68.83593 30989 ft 537 kts 63°
2026-04-15 21:05 43.06197 -68.74133 30985 ft 537 kts 63°
2026-04-15 21:05 43.09030 -68.64665 30993 ft 538 kts 63°
2026-04-15 21:06 43.11845 -68.55225 30990 ft 539 kts 63°
2026-04-15 21:06 43.14669 -68.45714 30993 ft 539 kts 63°
2026-04-15 21:07 43.17488 -68.36184 30994 ft 540 kts 63°
2026-04-15 21:07 43.20306 -68.26620 30994 ft 541 kts 64°
2026-04-15 21:08 43.23118 -68.17040 30994 ft 541 kts 64°
2026-04-15 21:08 43.25903 -68.07519 30997 ft 542 kts 64°
2026-04-15 21:09 43.28705 -67.97905 31001 ft 542 kts 64°
2026-04-15 21:09 43.31482 -67.88263 31000 ft 543 kts 64°
2026-04-15 21:10 43.34242 -67.78595 30997 ft 544 kts 64°
2026-04-15 21:10 43.37017 -67.68922 31000 ft 544 kts 64°
2026-04-15 21:11 43.39803 -67.59215 30990 ft 545 kts 64°
2026-04-15 21:11 43.42580 -67.49506 30996 ft 545 kts 64°
2026-04-15 21:12 43.45345 -67.39794 30997 ft 545 kts 64°
2026-04-15 21:12 43.48091 -67.30112 30998 ft 546 kts 65°
2026-04-15 21:13 43.50846 -67.20359 31002 ft 546 kts 65°
2026-04-15 21:13 43.53593 -67.10596 30991 ft 546 kts 65°
2026-04-15 21:14 43.56322 -67.00908 30998 ft 545 kts 64°
2026-04-15 21:14 43.59308 -66.91315 30993 ft 543 kts 61°
2026-04-15 21:15 43.62452 -66.81823 30994 ft 543 kts 61°
2026-04-15 21:15 43.65579 -66.72384 30996 ft 543 kts 61°
2026-04-15 21:16 43.68692 -66.62883 30995 ft 543 kts 61°
2026-04-15 21:16 43.71785 -66.53371 30993 ft 543 kts 62°
2026-04-15 21:17 43.74879 -66.43824 30986 ft 543 kts 61°
2026-04-15 21:17 43.77963 -66.34275 30979 ft 543 kts 62°
2026-04-15 21:18 43.81041 -66.24713 30975 ft 544 kts 62°
2026-04-15 21:18 43.84112 -66.15135 30974 ft 544 kts 62°
2026-04-15 21:19 43.87178 -66.05541 30972 ft 545 kts 62°
2026-04-15 21:19 43.90235 -65.95928 30976 ft 545 kts 62°
2026-04-15 21:20 43.93239 -65.86336 30977 ft 546 kts 62°
2026-04-15 21:20 43.96271 -65.76666 30979 ft 546 kts 62°
2026-04-15 21:21 43.99310 -65.67000 30984 ft 546 kts 62°
2026-04-15 21:21 44.02351 -65.57316 30990 ft 546 kts 62°
2026-04-15 21:22 44.04867 -65.49269 30993 ft 546 kts 62°
2026-04-15 21:22 44.07892 -65.39562 30998 ft 546 kts 62°
2026-04-15 21:23 44.11393 -65.28277 31004 ft 546 kts 62°
2026-04-15 21:23 44.13905 -65.20151 31004 ft 546 kts 62°
2026-04-15 21:24 44.16900 -65.10431 31014 ft 546 kts 62°
2026-04-15 21:24 44.19860 -65.00784 31015 ft 545 kts 62°
2026-04-15 21:25 44.22835 -64.91052 31016 ft 545 kts 62°
2026-04-15 21:25 44.25774 -64.81282 31012 ft 545 kts 62°
2026-04-15 21:26 44.28703 -64.71537 31009 ft 545 kts 62°
2026-04-15 21:26 44.31644 -64.61790 31012 ft 545 kts 62°
2026-04-15 21:27 44.34581 -64.52044 31004 ft 544 kts 62°
2026-04-15 21:27 44.37509 -64.42290 31001 ft 544 kts 62°
2026-04-15 21:28 44.40428 -64.32522 31003 ft 544 kts 62°
2026-04-15 21:28 44.43336 -64.22751 31000 ft 544 kts 62°
2026-04-15 21:29 44.46234 -64.12975 31002 ft 544 kts 62°
2026-04-15 21:29 44.49111 -64.03237 30999 ft 544 kts 62°
2026-04-15 21:30 44.51990 -63.93433 31004 ft 544 kts 62°
2026-04-15 21:30 44.54878 -63.83645 31020 ft 543 kts 61°
2026-04-15 21:31 44.59226 -63.68963 31040 ft 543 kts 61°
2026-04-15 21:32 44.63559 -63.54253 31049 ft 543 kts 61°
2026-04-15 21:32 44.66437 -63.44427 31055 ft 543 kts 61°
2026-04-15 21:33 44.69307 -63.34593 31042 ft 543 kts 61°
2026-04-15 21:33 44.72149 -63.24816 31042 ft 544 kts 61°
2026-04-15 21:34 44.75023 -63.14889 31039 ft 544 kts 61°
2026-04-15 21:34 44.77855 -63.05064 31035 ft 545 kts 61°
2026-04-15 21:35 44.80694 -62.95181 31030 ft 545 kts 61°
2026-04-15 21:35 44.83498 -62.85259 31031 ft 546 kts 62°
2026-04-15 21:36 44.86302 -62.75308 31038 ft 546 kts 61°
2026-04-15 21:36 44.89114 -62.65372 31039 ft 546 kts 61°
2026-04-15 21:37 44.91932 -62.55409 31039 ft 546 kts 61°
2026-04-15 21:37 44.94739 -62.45442 31042 ft 546 kts 61°
2026-04-15 21:38 44.97520 -62.35522 31038 ft 546 kts 61°
2026-04-15 21:38 45.00311 -62.25525 31042 ft 546 kts 62°
2026-04-15 21:39 45.03090 -62.15530 31048 ft 546 kts 62°
2026-04-15 21:39 45.05861 -62.05523 31048 ft 546 kts 62°
2026-04-15 21:40 45.08630 -61.95479 31051 ft 546 kts 62°
2026-04-15 21:40 45.11432 -61.85553 31052 ft 544 kts 59°
2026-04-15 21:41 45.14506 -61.75795 31057 ft 542 kts 58°
2026-04-15 21:41 45.17671 -61.66109 31061 ft 542 kts 57°
2026-04-15 21:42 45.20824 -61.56393 31069 ft 542 kts 58°
2026-04-15 21:42 45.23950 -61.46653 31069 ft 542 kts 58°
2026-04-15 21:43 45.27067 -61.36887 31073 ft 543 kts 58°
2026-04-15 21:43 45.30153 -61.27180 31077 ft 543 kts 58°
2026-04-15 21:44 45.33252 -61.17400 31082 ft 543 kts 58°
2026-04-15 21:44 45.36342 -61.07612 31081 ft 542 kts 58°
2026-04-15 21:45 45.39424 -60.97813 31083 ft 542 kts 59°
2026-04-15 21:45 45.42497 -60.88006 31086 ft 542 kts 59°
2026-04-15 21:46 45.45549 -60.78180 31092 ft 543 kts 59°
2026-04-15 21:46 45.48571 -60.68327 31093 ft 543 kts 59°
2026-04-15 21:47 45.51604 -60.58479 31097 ft 542 kts 59°
2026-04-15 21:47 45.54642 -60.48631 31104 ft 543 kts 59°
2026-04-15 21:48 45.57679 -60.38758 31105 ft 543 kts 59°
2026-04-15 21:48 45.60706 -60.28874 31108 ft 543 kts 59°
2026-04-15 21:49 45.63708 -60.19029 31111 ft 544 kts 59°
2026-04-15 21:49 45.66724 -60.09098 31127 ft 544 kts 59°
2026-04-15 21:50 45.69728 -59.99168 31116 ft 544 kts 59°
2026-04-15 21:50 45.72727 -59.89217 31121 ft 545 kts 60°
2026-04-15 21:51 45.75718 -59.79252 31124 ft 545 kts 60°
2026-04-15 21:51 45.78693 -59.69253 31124 ft 546 kts 60°
2026-04-15 21:52 45.81636 -59.59229 31127 ft 546 kts 60°
2026-04-15 21:52 45.84591 -59.49206 31129 ft 545 kts 60°
2026-04-15 21:53 45.87533 -59.39243 31128 ft 546 kts 60°
2026-04-15 21:53 45.90492 -59.29196 31130 ft 546 kts 60°
2026-04-15 21:54 45.93438 -59.19143 31135 ft 546 kts 60°
2026-04-15 21:54 45.96378 -59.09067 31134 ft 546 kts 60°
2026-04-15 21:55 45.99308 -58.98985 31141 ft 546 kts 60°
2026-04-15 21:55 46.02229 -58.88893 31137 ft 547 kts 60°
2026-04-15 21:56 46.05127 -58.78838 31143 ft 547 kts 60°
2026-04-15 21:56 46.08037 -58.68700 31142 ft 547 kts 61°
2026-04-15 21:57 46.10925 -58.58543 31143 ft 548 kts 61°
2026-04-15 21:57 46.13783 -58.48352 31147 ft 548 kts 61°
2026-04-15 21:58 46.16656 -58.38162 31150 ft 548 kts 61°
2026-04-15 21:58 46.19534 -58.27969 31152 ft 549 kts 61°
2026-04-15 21:59 46.22392 -58.17811 31156 ft 549 kts 61°
2026-04-15 21:59 46.25267 -58.07545 31162 ft 550 kts 61°
2026-04-15 22:00 46.28131 -57.97272 31154 ft 551 kts 61°
2026-04-15 22:00 46.30988 -57.86979 31166 ft 552 kts 62°
2026-04-15 22:01 46.33837 -57.76667 31158 ft 552 kts 62°
2026-04-15 22:01 46.36678 -57.66344 31169 ft 552 kts 62°
2026-04-15 22:02 46.39496 -57.56061 31163 ft 553 kts 62°
2026-04-15 22:02 46.42312 -57.45655 31173 ft 555 kts 62°
2026-04-15 22:03 46.45107 -57.35215 31182 ft 556 kts 62°
2026-04-15 22:03 46.47816 -57.25152 31183 ft 557 kts 61°
2026-04-15 22:04 46.50640 -57.14667 31186 ft 558 kts 61°
2026-04-15 22:04 46.53456 -57.04171 31186 ft 558 kts 61°
2026-04-15 22:05 46.56266 -56.93645 31181 ft 559 kts 61°
2026-04-15 22:05 46.59071 -56.83089 31190 ft 559 kts 61°
2026-04-15 22:06 46.61843 -56.72606 31195 ft 559 kts 61°
2026-04-15 22:06 46.64627 -56.62030 31200 ft 559 kts 61°
2026-04-15 22:07 46.67397 -56.51463 31196 ft 558 kts 61°
2026-04-15 22:07 46.70154 -56.40895 31197 ft 558 kts 61°
2026-04-15 22:08 46.72874 -56.30290 31190 ft 558 kts 62°
2026-04-15 22:08 46.75581 -56.19685 31188 ft 558 kts 61°
2026-04-15 22:09 46.78299 -56.09096 31191 ft 557 kts 61°
2026-04-15 22:09 46.80556 -56.00294 31193 ft 557 kts 61°
2026-04-15 22:10 46.83261 -55.89702 31197 ft 556 kts 61°
2026-04-15 22:10 46.86390 -55.77382 31206 ft 556 kts 61°
2026-04-15 22:11 46.88634 -55.68504 31219 ft 555 kts 61°
2026-04-15 22:11 46.91284 -55.57972 31226 ft 555 kts 61°
2026-04-15 22:12 46.93942 -55.47361 31212 ft 554 kts 61°
2026-04-15 22:12 46.96586 -55.36757 31211 ft 553 kts 61°
2026-04-15 22:13 46.99214 -55.26164 31223 ft 552 kts 62°
2026-04-15 22:13 47.01793 -55.15566 31222 ft 552 kts 62°
2026-04-15 22:14 47.04350 -55.05030 31227 ft 551 kts 62°
2026-04-15 22:14 47.06931 -54.94454 31230 ft 549 kts 62°
2026-04-15 22:15 47.09486 -54.83969 31232 ft 548 kts 62°
2026-04-15 22:15 47.12037 -54.73450 31231 ft 546 kts 63°
2026-04-15 22:16 47.14571 -54.62946 31235 ft 545 kts 63°
2026-04-15 22:16 47.17090 -54.52454 31238 ft 543 kts 63°
2026-04-15 22:17 47.19589 -54.41992 31239 ft 542 kts 63°
2026-04-15 22:17 47.22077 -54.31532 31242 ft 541 kts 63°
2026-04-15 22:18 47.24547 -54.21091 31244 ft 540 kts 63°
2026-04-15 22:18 47.27005 -54.10655 31247 ft 539 kts 63°
2026-04-15 22:19 47.29373 -54.00273 31250 ft 540 kts 66°
2026-04-15 22:19 47.31008 -53.89369 31250 ft 547 kts 75°
2026-04-15 22:20 47.32125 -53.78271 31254 ft 547 kts 76°
2026-04-15 22:20 47.33232 -53.67183 31249 ft 545 kts 75°
2026-04-15 22:21 47.34399 -53.56155 31248 ft 544 kts 75°
2026-04-15 22:21 47.35577 -53.45203 31250 ft 542 kts 75°
2026-04-15 22:22 47.36746 -53.34225 31253 ft 541 kts 75°
2026-04-15 22:22 47.37898 -53.23260 31257 ft 540 kts 75°
2026-04-15 22:23 47.39036 -53.12314 31255 ft 540 kts 75°
2026-04-15 22:23 47.40162 -53.01375 31253 ft 538 kts 75°
2026-04-15 22:24 47.41276 -52.90448 31254 ft 538 kts 76°
2026-04-15 22:24 47.42377 -52.79541 31248 ft 537 kts 76°
2026-04-15 22:25 47.43429 -52.68626 31250 ft 536 kts 76°
2026-04-15 22:25 47.44475 -52.57730 31253 ft 535 kts 77°
2026-04-15 22:26 47.45527 -52.46929 31251 ft 534 kts 77°
2026-04-15 22:26 47.46583 -52.36068 31258 ft 533 kts 77°
2026-04-15 22:27 47.47281 -52.28818 31266 ft 532 kts 77°
2026-04-15 22:27 47.48205 -52.19150 31265 ft 531 kts 77°
2026-04-15 22:28 47.49226 -52.08349 31265 ft 530 kts 78°
2026-04-15 22:28 47.50641 -51.97698 31267 ft 522 kts 68°
2026-04-15 22:29 47.53122 -51.87726 31264 ft 518 kts 63°
2026-04-15 22:29 47.55839 -51.77849 31267 ft 518 kts 63°
2026-04-15 22:30 47.58473 -51.67910 31259 ft 518 kts 64°
2026-04-15 22:30 47.61037 -51.57927 31269 ft 518 kts 65°
2026-04-15 22:31 47.63581 -51.47923 31270 ft 519 kts 65°
2026-04-15 22:31 47.66120 -51.37906 31268 ft 519 kts 65°
2026-04-15 22:32 47.68652 -51.27890 31269 ft 519 kts 65°
2026-04-15 22:32 47.71178 -51.17851 31268 ft 519 kts 65°
2026-04-15 22:33 47.73697 -51.07800 31271 ft 519 kts 65°
2026-04-15 22:33 47.75441 -51.00812 31268 ft 519 kts 65°
2026-04-15 22:34 47.77949 -50.90724 31268 ft 519 kts 65°
2026-04-15 22:34 47.80410 -50.80681 31264 ft 520 kts 66°
2026-04-15 22:35 47.82861 -50.70567 31266 ft 520 kts 66°
2026-04-15 22:35 47.85329 -50.60456 31270 ft 520 kts 66°
2026-04-15 22:36 47.87800 -50.50338 31268 ft 519 kts 66°
2026-04-15 22:36 47.90264 -50.40209 31263 ft 519 kts 66°
2026-04-15 22:37 47.92715 -50.30083 31272 ft 519 kts 66°
2026-04-15 22:37 47.95143 -50.20003 31264 ft 519 kts 66°
2026-04-15 22:38 47.97572 -50.09868 31264 ft 518 kts 66°
2026-04-15 22:38 47.99990 -49.99738 31268 ft 518 kts 67°
2026-04-15 22:39 48.02016 -49.89383 31261 ft 521 kts 74°
2026-04-15 22:39 48.03513 -49.78747 31262 ft 522 kts 76°
2026-04-15 22:40 48.04953 -49.68106 31261 ft 522 kts 76°
2026-04-15 22:40 48.06428 -49.57568 31258 ft 522 kts 75°
2026-04-15 22:41 48.08687 -49.41618 31260 ft 523 kts 76°
2026-04-15 22:41 48.10180 -49.30981 31260 ft 523 kts 76°
2026-04-15 22:42 48.11663 -49.20329 31259 ft 523 kts 76°
2026-04-15 22:42 48.13136 -49.09660 31257 ft 523 kts 76°
2026-04-15 22:43 48.14591 -48.99051 31252 ft 523 kts 76°
2026-04-15 22:43 48.16044 -48.88375 31252 ft 523 kts 76°
2026-04-15 22:44 48.17490 -48.77671 31246 ft 523 kts 76°
2026-04-15 22:44 48.18893 -48.66962 31250 ft 523 kts 77°
2026-04-15 22:45 48.20280 -48.56259 31245 ft 523 kts 77°
2026-04-15 22:45 48.21674 -48.45628 31246 ft 523 kts 77°
2026-04-15 22:46 48.23080 -48.34910 31236 ft 523 kts 77°
2026-04-15 22:46 48.24476 -48.24194 31238 ft 524 kts 77°
2026-04-15 22:47 48.25861 -48.13472 31240 ft 524 kts 77°
2026-04-15 22:47 48.27236 -48.02734 31239 ft 524 kts 77°
2026-04-15 22:48 48.28604 -47.91970 31233 ft 524 kts 77°
2026-04-15 22:48 48.29951 -47.81281 31230 ft 524 kts 77°
2026-04-15 22:49 48.31296 -47.70532 31229 ft 524 kts 78°
2026-04-15 22:49 48.32631 -47.59774 31229 ft 524 kts 78°
2026-04-15 22:50 48.33947 -47.48975 31223 ft 524 kts 78°
2026-04-15 22:50 48.35219 -47.38178 31222 ft 524 kts 78°
2026-04-15 22:51 48.36497 -47.27459 31219 ft 524 kts 78°
2026-04-15 22:51 48.37791 -47.16667 31218 ft 524 kts 78°
2026-04-15 22:52 48.39082 -47.05845 31216 ft 524 kts 78°
2026-04-15 22:52 48.40360 -46.95029 31212 ft 525 kts 78°
2026-04-15 22:53 48.41620 -46.84273 31210 ft 525 kts 78°
2026-04-15 22:53 48.42878 -46.73436 31210 ft 525 kts 78°
2026-04-15 22:54 48.44126 -46.62591 31203 ft 526 kts 79°
2026-04-15 22:54 48.45365 -46.51730 31199 ft 526 kts 79°
2026-04-15 22:55 48.46594 -46.40863 31204 ft 526 kts 79°
2026-04-15 22:55 48.47812 -46.29995 31198 ft 526 kts 79°
2026-04-15 22:56 48.48980 -46.19099 31196 ft 526 kts 79°
2026-04-15 22:56 48.50148 -46.08202 31195 ft 526 kts 79°
2026-04-15 22:57 48.51324 -45.97368 31188 ft 526 kts 79°
2026-04-15 22:57 48.52504 -45.86468 31188 ft 526 kts 79°
2026-04-15 22:58 48.53672 -45.75582 31187 ft 526 kts 80°
2026-04-15 22:58 48.54636 -45.66513 31181 ft 526 kts 80°
2026-04-15 22:59 48.55786 -45.55592 31181 ft 526 kts 80°
2026-04-15 22:59 48.57108 -45.42902 31181 ft 526 kts 80°
2026-04-15 23:00 48.58053 -45.33750 31176 ft 526 kts 81°
2026-04-15 23:00 48.59171 -45.22819 31173 ft 526 kts 81°
2026-04-15 23:01 48.60274 -45.11933 31173 ft 527 kts 81°
2026-04-15 23:01 48.61357 -45.00977 31167 ft 528 kts 82°
2026-04-15 23:02 48.62403 -44.89984 31162 ft 528 kts 82°
2026-04-15 23:02 48.63468 -44.78972 31155 ft 529 kts 82°
2026-04-15 23:03 48.64540 -44.67948 31158 ft 530 kts 82°
2026-04-15 23:03 48.65599 -44.56979 31160 ft 531 kts 83°
2026-04-15 23:04 48.66654 -44.45932 31153 ft 531 kts 83°
2026-04-15 23:04 48.67697 -44.34874 31149 ft 531 kts 83°
2026-04-15 23:05 48.68733 -44.23779 31144 ft 532 kts 83°
2026-04-15 23:05 48.69758 -44.12682 31142 ft 532 kts 83°
2026-04-15 23:06 48.70772 -44.01581 31141 ft 532 kts 84°
2026-04-15 23:06 48.71775 -43.90475 31143 ft 533 kts 84°
2026-04-15 23:07 48.72758 -43.79416 31140 ft 533 kts 84°
2026-04-15 23:07 48.73695 -43.68275 31141 ft 533 kts 84°
2026-04-15 23:08 48.74644 -43.57107 31137 ft 533 kts 84°
2026-04-15 23:08 48.75599 -43.46013 31134 ft 533 kts 84°
2026-04-15 23:09 48.76553 -43.34856 31126 ft 534 kts 84°
2026-04-15 23:09 48.77496 -43.23698 31125 ft 534 kts 84°
2026-04-15 23:10 48.78427 -43.12530 31123 ft 534 kts 84°
2026-04-15 23:10 48.79347 -43.01361 31125 ft 534 kts 84°
2026-04-15 23:11 48.80258 -42.90158 31118 ft 534 kts 85°
2026-04-15 23:11 48.81158 -42.78957 31113 ft 534 kts 84°
2026-04-15 23:12 48.82042 -42.67826 31113 ft 534 kts 85°
2026-04-15 23:12 48.82919 -42.56614 31111 ft 535 kts 85°
2026-04-15 23:13 48.83745 -42.45393 31106 ft 535 kts 85°
2026-04-15 23:13 48.84569 -42.34171 31109 ft 535 kts 85°
2026-04-15 23:14 48.85409 -42.22939 31105 ft 535 kts 85°
2026-04-15 23:14 48.85829 -42.17317 31285 ft 536 kts 85°
2026-04-15 23:14 48.86248 -42.11680 31601 ft 536 kts 85°
2026-04-15 23:15 48.86663 -42.06062 31915 ft 536 kts 85°
2026-04-15 23:15 48.87075 -42.00437 32214 ft 536 kts 85°
2026-04-15 23:15 48.87484 -41.94808 32510 ft 535 kts 85°
2026-04-15 23:15 48.87885 -41.89254 32792 ft 535 kts 85°
2026-04-15 23:16 48.88287 -41.83637 33027 ft 535 kts 85°
2026-04-15 23:16 48.88687 -41.78011 33074 ft 535 kts 85°
2026-04-15 23:16 48.89477 -41.66785 33092 ft 534 kts 85°
2026-04-15 23:17 48.90257 -41.55553 33092 ft 534 kts 85°
2026-04-15 23:17 48.91025 -41.44317 33088 ft 534 kts 85°
2026-04-15 23:18 48.91782 -41.33086 33087 ft 534 kts 85°
2026-04-15 23:18 48.92494 -41.21836 33076 ft 534 kts 85°
2026-04-15 23:19 48.93187 -41.10652 33066 ft 534 kts 85°
2026-04-15 23:19 48.93902 -40.99393 33079 ft 534 kts 84°
2026-04-15 23:20 48.94617 -40.88145 33064 ft 534 kts 85°
2026-04-15 23:20 48.95323 -40.76879 33067 ft 534 kts 84°
2026-04-15 23:21 48.96016 -40.65610 33058 ft 534 kts 84°
2026-04-15 23:21 48.96695 -40.54368 33058 ft 534 kts 84°
2026-04-15 23:22 48.97365 -40.43094 33053 ft 534 kts 84°
2026-04-15 23:22 48.98019 -40.31906 33055 ft 534 kts 84°
2026-04-15 23:23 48.98667 -40.20644 33047 ft 534 kts 84°
2026-04-15 23:23 48.99304 -40.09360 33046 ft 534 kts 84°
2026-04-15 23:24 49.00708 -39.98380 33044 ft 530 kts 69°
2026-04-15 23:24 49.03376 -39.87907 33045 ft 529 kts 64°
2026-04-15 23:25 49.06192 -39.77544 33032 ft 529 kts 65°
2026-04-15 23:25 49.07538 -39.72368 33083 ft 517 kts 64°
2026-04-15 23:25 49.08818 -39.67305 33041 ft 509 kts 64°
2026-04-15 23:26 49.11329 -39.57219 33030 ft 507 kts 65°
2026-04-15 23:26 49.13801 -39.47218 33027 ft 507 kts 65°
2026-04-15 23:27 49.16286 -39.37134 33018 ft 507 kts 65°
2026-04-15 23:27 49.18761 -39.27050 33022 ft 506 kts 65°
2026-04-15 23:28 49.21226 -39.16963 33017 ft 506 kts 65°
2026-04-15 23:28 49.23681 -39.06869 33012 ft 505 kts 65°
2026-04-15 23:29 49.26124 -38.96778 33011 ft 505 kts 65°
2026-04-15 23:29 49.28538 -38.86757 33002 ft 505 kts 65°
2026-04-15 23:30 49.30921 -38.76640 33000 ft 505 kts 66°
2026-04-15 23:30 49.33304 -38.66528 33001 ft 504 kts 66°
2026-04-15 23:31 49.35701 -38.56416 32990 ft 504 kts 65°
2026-04-15 23:31 49.38093 -38.46313 32992 ft 503 kts 66°
2026-04-15 23:32 49.40475 -38.36206 32974 ft 503 kts 66°
2026-04-15 23:32 49.42844 -38.26097 32980 ft 503 kts 66°
2026-04-15 23:33 49.45203 -38.15986 32985 ft 502 kts 66°
2026-04-15 23:33 49.47535 -38.05943 32981 ft 502 kts 66°
2026-04-15 23:34 49.49873 -37.95826 32973 ft 502 kts 66°
2026-04-15 23:36 49.57962 -37.60332 32958 ft 502 kts 68°
2026-04-15 23:36 49.60223 -37.50146 32953 ft 502 kts 68°
2026-04-15 23:37 49.62496 -37.39988 32948 ft 501 kts 68°
2026-04-15 23:37 49.64758 -37.29887 32948 ft 501 kts 68°
2026-04-15 23:38 49.67027 -37.19718 32944 ft 501 kts 68°
2026-04-15 23:38 49.69289 -37.09524 32938 ft 501 kts 68°
2026-04-15 23:39 49.71538 -36.99337 32930 ft 501 kts 68°
2026-04-15 23:39 49.73780 -36.89132 32936 ft 501 kts 69°
2026-04-15 23:40 49.76012 -36.78919 32926 ft 501 kts 69°
2026-04-15 23:40 49.78234 -36.68704 32921 ft 501 kts 69°
2026-04-15 23:41 49.80452 -36.58454 32918 ft 501 kts 69°
2026-04-15 23:41 49.82644 -36.48275 32910 ft 501 kts 69°
2026-04-15 23:42 49.84815 -36.38004 32903 ft 502 kts 70°
2026-04-15 23:42 49.86965 -36.27725 32903 ft 501 kts 70°
2026-04-15 23:43 49.89133 -36.17446 32899 ft 502 kts 70°
2026-04-15 23:43 49.91302 -36.07168 32890 ft 501 kts 70°
2026-04-15 23:44 49.93467 -35.96867 32888 ft 501 kts 70°
2026-04-15 23:44 49.95618 -35.86574 32882 ft 501 kts 70°
2026-04-15 23:45 49.97758 -35.76274 32878 ft 501 kts 70°
2026-04-15 23:45 49.99888 -35.65971 32874 ft 501 kts 70°
2026-04-15 23:46 50.02009 -35.55658 32870 ft 500 kts 71°
2026-04-15 23:46 50.04108 -35.45403 32864 ft 500 kts 71°
2026-04-15 23:47 50.06209 -35.35077 32863 ft 500 kts 71°
2026-04-15 23:47 50.07951 -35.26478 32859 ft 500 kts 71°
2026-04-15 23:48 50.10015 -35.16117 32855 ft 500 kts 71°
2026-04-15 23:48 50.12051 -35.05742 32849 ft 500 kts 71°
2026-04-15 23:49 50.14104 -34.95374 32848 ft 500 kts 71°
2026-04-15 23:49 50.16161 -34.85006 32845 ft 500 kts 71°
2026-04-15 23:50 50.18211 -34.74627 32841 ft 500 kts 71°
2026-04-15 23:50 50.20251 -34.64238 32841 ft 501 kts 72°
2026-04-15 23:51 50.23293 -34.48632 32833 ft 501 kts 72°
2026-04-15 23:51 50.25298 -34.38277 32824 ft 501 kts 72°
2026-04-15 23:52 50.27305 -34.27850 32828 ft 501 kts 72°
2026-04-15 23:52 50.29305 -34.17411 32830 ft 501 kts 72°
2026-04-15 23:53 50.31296 -34.06955 32818 ft 501 kts 72°
2026-04-15 23:53 50.33275 -33.96480 32814 ft 502 kts 73°
2026-04-15 23:54 50.35204 -33.85976 32813 ft 502 kts 73°
2026-04-15 23:54 50.37146 -33.75464 32811 ft 502 kts 73°
2026-04-15 23:55 50.39086 -33.65018 32807 ft 502 kts 73°
2026-04-15 23:55 50.41035 -33.54505 32802 ft 502 kts 73°
2026-04-15 23:56 50.42971 -33.43997 32801 ft 502 kts 73°
2026-04-15 23:56 50.44898 -33.33472 32794 ft 502 kts 73°
2026-04-15 23:57 50.46815 -33.22936 32789 ft 502 kts 73°
2026-04-15 23:57 50.48722 -33.12400 32784 ft 502 kts 73°
2026-04-15 23:58 50.50618 -33.01860 32786 ft 502 kts 73°
2026-04-15 23:58 50.52507 -32.91300 32776 ft 501 kts 74°
2026-04-15 23:59 50.54383 -32.80748 32768 ft 502 kts 74°
2026-04-15 23:59 50.56245 -32.70163 32772 ft 502 kts 75°
2026-04-16 00:00 50.58057 -32.59569 32762 ft 501 kts 75°
2026-04-16 00:00 50.59870 -32.49048 32764 ft 501 kts 75°
2026-04-16 00:01 50.61705 -32.38460 32760 ft 501 kts 75°
2026-04-16 00:01 50.63537 -32.27860 32752 ft 501 kts 75°
2026-04-16 00:02 50.65360 -32.17238 32754 ft 501 kts 75°
2026-04-16 00:02 50.67169 -32.06627 32745 ft 501 kts 75°
2026-04-16 00:03 50.68970 -31.95999 32747 ft 501 kts 75°
2026-04-16 00:03 50.70761 -31.85365 32755 ft 502 kts 75°
2026-04-16 00:04 50.72546 -31.74700 32743 ft 501 kts 76°
2026-04-16 00:04 50.74306 -31.64122 32730 ft 501 kts 76°
2026-04-16 00:05 50.76070 -31.53450 32735 ft 501 kts 76°
2026-04-16 00:05 50.77812 -31.42772 32827 ft 501 kts 76°
2026-04-16 00:06 50.78659 -31.37425 33104 ft 501 kts 76°
2026-04-16 00:06 50.79507 -31.32080 33370 ft 501 kts 76°
2026-04-16 00:06 50.80359 -31.26738 33629 ft 501 kts 76°
2026-04-16 00:06 50.81218 -31.21392 33700 ft 502 kts 76°
2026-04-16 00:07 50.82939 -31.10699 33713 ft 501 kts 76°
2026-04-16 00:07 50.84641 -31.00080 33715 ft 500 kts 76°
2026-04-16 00:08 50.86341 -30.89407 33707 ft 500 kts 77°
2026-04-16 00:08 50.88030 -30.78722 33704 ft 500 kts 77°
2026-04-16 00:09 50.89707 -30.68041 33697 ft 500 kts 77°
2026-04-16 00:09 50.91374 -30.57357 33709 ft 499 kts 77°
2026-04-16 00:10 50.93031 -30.46665 33693 ft 500 kts 77°
2026-04-16 00:10 50.94679 -30.35960 33698 ft 500 kts 77°
2026-04-16 00:11 50.96309 -30.25302 33694 ft 500 kts 77°
2026-04-16 00:11 50.97924 -30.14578 33692 ft 499 kts 78°
2026-04-16 00:12 50.99494 -30.03850 33686 ft 499 kts 78°
2026-04-16 00:12 51.01581 -29.93334 33682 ft 500 kts 70°
2026-04-16 00:13 51.04200 -29.83075 33677 ft 501 kts 68°
2026-04-16 00:13 51.06858 -29.72824 33677 ft 501 kts 69°
2026-04-16 00:14 51.09457 -29.62526 33677 ft 501 kts 69°
2026-04-16 00:14 51.12001 -29.52284 33673 ft 501 kts 69°
2026-04-16 00:15 51.14550 -29.41960 33670 ft 501 kts 69°
2026-04-16 00:15 51.17095 -29.31617 33669 ft 501 kts 69°
2026-04-16 00:16 51.19629 -29.21272 33668 ft 501 kts 69°
2026-04-16 00:16 51.22158 -29.10899 33665 ft 501 kts 70°
2026-04-16 00:17 51.24677 -29.00522 33663 ft 501 kts 70°
2026-04-16 00:17 51.27188 -28.90125 33660 ft 502 kts 70°
2026-04-16 00:18 51.29675 -28.79776 33658 ft 502 kts 70°
2026-04-16 00:18 51.32132 -28.69322 33660 ft 502 kts 70°
2026-04-16 00:19 51.34584 -28.58870 33659 ft 502 kts 70°
2026-04-16 00:19 51.37053 -28.48415 33654 ft 502 kts 70°
2026-04-16 00:20 51.39524 -28.37941 33653 ft 503 kts 70°
2026-04-16 00:20 51.41912 -28.27770 33647 ft 503 kts 70°
2026-04-16 00:21 51.44365 -28.17267 33646 ft 503 kts 70°
2026-04-16 00:21 51.45840 -28.10929 33650 ft 503 kts 70°
2026-04-16 00:22 51.48083 -28.01249 33646 ft 504 kts 70°
2026-04-16 00:22 51.50516 -27.90700 33643 ft 504 kts 70°
2026-04-16 00:23 51.52940 -27.80138 33643 ft 504 kts 71°
2026-04-16 00:23 51.55342 -27.69615 33644 ft 504 kts 71°
2026-04-16 00:24 51.57748 -27.59026 33645 ft 505 kts 71°
2026-04-16 00:24 51.60128 -27.48395 33637 ft 505 kts 71°
2026-04-16 00:25 51.62477 -27.37742 33639 ft 505 kts 71°
2026-04-16 00:25 51.64845 -27.27082 33638 ft 506 kts 71°
2026-04-16 00:26 51.67218 -27.16419 33637 ft 506 kts 71°
2026-04-16 00:26 51.69587 -27.05734 33636 ft 506 kts 71°
2026-04-16 00:27 51.71947 -26.95028 33633 ft 507 kts 71°
2026-04-16 00:27 51.74297 -26.84310 33629 ft 507 kts 71°
2026-04-16 00:28 51.76638 -26.73575 33632 ft 507 kts 71°
2026-04-16 00:28 51.78974 -26.62805 33630 ft 508 kts 71°
2026-04-16 00:29 51.81284 -26.52101 33630 ft 508 kts 72°
2026-04-16 00:29 51.83602 -26.41304 33627 ft 508 kts 72°
2026-04-16 00:30 51.85909 -26.30500 33632 ft 509 kts 72°
2026-04-16 00:30 51.88177 -26.19658 33621 ft 509 kts 72°
2026-04-16 00:31 51.90428 -26.08797 33624 ft 509 kts 72°
2026-04-16 00:31 51.92700 -25.97926 33626 ft 509 kts 72°
2026-04-16 00:32 51.94977 -25.87038 33629 ft 509 kts 72°
2026-04-16 00:32 51.97229 -25.76212 33628 ft 510 kts 72°
2026-04-16 00:33 51.99484 -25.65306 33630 ft 510 kts 72°
2026-04-16 00:33 52.01351 -25.56233 33623 ft 510 kts 72°
2026-04-16 00:34 52.03592 -25.45281 33626 ft 510 kts 72°
2026-04-16 00:34 52.05822 -25.34324 33628 ft 511 kts 72°
2026-04-16 00:35 52.08042 -25.23354 33623 ft 511 kts 73°
2026-04-16 00:35 52.10254 -25.12365 33625 ft 511 kts 73°
2026-04-16 00:36 52.12441 -25.01438 33622 ft 511 kts 73°
2026-04-16 00:36 52.14596 -24.90396 33626 ft 512 kts 73°
2026-04-16 00:37 52.16744 -24.79339 33625 ft 512 kts 73°
2026-04-16 00:37 52.18909 -24.68284 33628 ft 512 kts 73°
2026-04-16 00:38 52.21078 -24.57202 33629 ft 513 kts 73°
2026-04-16 00:38 52.23236 -24.46119 33625 ft 513 kts 73°
2026-04-16 00:39 52.25384 -24.35013 33624 ft 513 kts 73°
2026-04-16 00:39 52.27507 -24.23966 33835 ft 514 kts 73°
2026-04-16 00:40 52.28573 -24.18398 34042 ft 514 kts 73°
2026-04-16 00:40 52.29636 -24.12826 34248 ft 514 kts 73°
2026-04-16 00:40 52.30698 -24.07245 34460 ft 514 kts 73°
2026-04-16 00:40 52.31756 -24.01669 34585 ft 514 kts 73°
2026-04-16 00:41 52.33869 -23.90484 34624 ft 515 kts 74°
2026-04-16 00:41 52.35629 -23.81111 34629 ft 515 kts 74°
2026-04-16 00:42 52.36571 -23.76075 34630 ft 515 kts 74°
2026-04-16 00:42 52.38642 -23.64842 34627 ft 515 kts 75°
2026-04-16 00:43 52.40677 -23.53581 34626 ft 516 kts 74°
2026-04-16 00:43 52.42732 -23.42311 34628 ft 516 kts 74°
2026-04-16 00:44 52.44777 -23.31128 34634 ft 516 kts 74°
2026-04-16 00:44 52.46830 -23.19848 34634 ft 516 kts 74°
2026-04-16 00:45 52.48870 -23.08561 34632 ft 516 kts 75°
2026-04-16 00:45 52.50903 -22.97241 34632 ft 517 kts 75°
2026-04-16 00:46 52.52924 -22.85912 34634 ft 517 kts 75°
2026-04-16 00:46 52.54937 -22.74562 34636 ft 517 kts 75°
2026-04-16 00:47 52.56938 -22.63202 34637 ft 518 kts 75°
2026-04-16 00:47 52.58932 -22.51817 34635 ft 518 kts 75°
2026-04-16 00:48 52.60916 -22.40409 34640 ft 519 kts 75°
2026-04-16 00:48 52.62834 -22.29041 34635 ft 519 kts 76°
2026-04-16 00:50 52.70598 -21.83133 34641 ft 520 kts 76°
2026-04-16 00:51 52.72523 -21.71625 34646 ft 521 kts 76°
2026-04-16 00:51 52.74439 -21.60088 34645 ft 521 kts 76°
2026-04-16 00:52 52.76348 -21.48521 34645 ft 522 kts 76°
2026-04-16 00:52 52.78231 -21.37030 34644 ft 522 kts 76°
2026-04-16 00:53 52.80120 -21.25427 34657 ft 522 kts 76°
2026-04-16 00:53 52.81996 -21.13821 34646 ft 523 kts 76°
2026-04-16 00:54 52.83846 -21.02179 34654 ft 523 kts 77°
2026-04-16 00:54 52.85651 -20.90524 34646 ft 523 kts 76°
2026-04-16 00:55 52.87480 -20.78840 34653 ft 524 kts 76°
2026-04-16 00:55 52.89306 -20.67224 34647 ft 524 kts 76°
2026-04-16 00:56 52.91134 -20.55526 34656 ft 524 kts 76°
2026-04-16 00:56 52.92952 -20.43802 34655 ft 525 kts 77°
2026-04-16 00:57 52.95657 -20.26191 34648 ft 525 kts 77°
2026-04-16 00:58 52.97447 -20.14430 34660 ft 526 kts 77°
2026-04-16 00:58 52.99225 -20.02660 34656 ft 526 kts 77°
2026-04-16 00:59 53.00440 -19.90738 34665 ft 524 kts 88°
2026-04-16 00:59 53.00677 -19.78652 34658 ft 523 kts 91°
2026-04-16 01:00 53.00767 -19.66637 34666 ft 524 kts 91°
2026-04-16 01:00 53.00936 -19.54539 34657 ft 524 kts 90°
2026-04-16 01:01 53.01146 -19.42432 34661 ft 525 kts 90°
2026-04-16 01:01 53.01352 -19.30302 34663 ft 525 kts 90°
2026-04-16 01:02 53.01539 -19.18256 34663 ft 525 kts 91°
2026-04-16 01:02 53.01714 -19.06043 34666 ft 526 kts 91°
2026-04-16 01:03 53.01875 -18.93904 34671 ft 526 kts 91°
2026-04-16 01:03 53.02024 -18.81747 34678 ft 527 kts 91°
2026-04-16 01:04 53.02159 -18.69671 34677 ft 527 kts 91°
2026-04-16 01:04 53.02279 -18.57504 34678 ft 527 kts 91°
2026-04-16 01:05 53.02336 -18.45332 34680 ft 527 kts 92°
2026-04-16 01:05 53.02404 -18.33157 34679 ft 528 kts 91°
2026-04-16 01:06 53.02487 -18.20969 34681 ft 528 kts 91°
2026-04-16 01:06 53.02564 -18.08777 34688 ft 528 kts 91°
2026-04-16 01:07 53.02628 -17.96574 34688 ft 528 kts 92°
2026-04-16 01:07 53.02678 -17.84354 34690 ft 529 kts 92°
2026-04-16 01:08 53.02715 -17.72133 34689 ft 529 kts 92°
2026-04-16 01:08 53.02740 -17.59914 34692 ft 529 kts 92°
2026-04-16 01:09 53.02752 -17.47683 34696 ft 529 kts 92°
2026-04-16 01:09 53.02752 -17.35452 34697 ft 530 kts 92°
2026-04-16 01:10 53.02739 -17.23285 34697 ft 530 kts 92°
2026-04-16 01:10 53.02670 -17.11032 34702 ft 530 kts 93°
2026-04-16 01:11 53.02589 -16.98774 34704 ft 531 kts 93°
2026-04-16 01:11 53.02528 -16.86503 34705 ft 531 kts 92°
2026-04-16 01:12 53.02466 -16.74231 34706 ft 531 kts 93°
2026-04-16 01:12 53.02392 -16.61948 34708 ft 532 kts 93°
2026-04-16 01:13 53.02304 -16.49662 34708 ft 532 kts 93°
2026-04-16 01:13 53.02201 -16.37351 34711 ft 532 kts 93°
2026-04-16 01:14 53.02088 -16.25132 34716 ft 533 kts 93°
2026-04-16 01:14 53.01960 -16.12797 34715 ft 533 kts 93°
2026-04-16 01:15 53.01820 -16.00487 34722 ft 533 kts 94°
2026-04-16 01:15 53.01667 -15.88167 34721 ft 534 kts 94°
2026-04-16 01:16 53.01472 -15.75852 34726 ft 534 kts 94°
2026-04-16 01:16 53.01243 -15.63533 34725 ft 534 kts 94°
2026-04-16 01:17 53.01038 -15.51400 34724 ft 535 kts 94°
2026-04-16 01:17 53.00835 -15.39040 34731 ft 535 kts 94°
2026-04-16 01:18 53.00620 -15.26682 34732 ft 535 kts 94°
2026-04-16 01:18 53.00392 -15.14410 34735 ft 535 kts 94°
2026-04-16 01:19 53.00153 -15.02040 34733 ft 536 kts 94°
2026-04-16 01:19 53.00070 -14.89643 34739 ft 537 kts 92°
2026-04-16 01:20 53.00116 -14.77246 34746 ft 537 kts 91°
2026-04-16 01:20 53.00167 -14.64843 34738 ft 537 kts 92°
2026-04-16 01:21 53.00192 -14.52436 34739 ft 538 kts 92°
2026-04-16 01:21 53.00197 -14.42025 34743 ft 538 kts 92°
2026-04-16 01:22 53.00189 -14.29683 34747 ft 538 kts 92°
2026-04-16 01:22 53.00169 -14.17243 34749 ft 538 kts 92°
2026-04-16 01:23 53.00137 -14.04806 34756 ft 539 kts 92°
2026-04-16 01:23 53.00125 -13.92357 34745 ft 539 kts 92°
2026-04-16 01:24 53.00177 -13.79907 34754 ft 540 kts 91°
2026-04-16 01:24 53.00248 -13.67503 34756 ft 540 kts 91°
2026-04-16 01:25 53.00307 -13.55037 34757 ft 540 kts 91°
2026-04-16 01:25 53.00348 -13.42568 34760 ft 540 kts 91°
2026-04-16 01:26 53.00375 -13.30095 34766 ft 540 kts 92°
2026-04-16 01:26 53.00389 -13.17609 34761 ft 541 kts 92°
2026-04-16 01:27 53.00389 -13.05124 34771 ft 541 kts 92°
2026-04-16 01:27 53.00377 -12.92620 34769 ft 541 kts 92°
2026-04-16 01:28 53.00352 -12.80111 34773 ft 542 kts 92°
2026-04-16 01:28 53.00313 -12.67606 34771 ft 542 kts 92°
2026-04-16 01:29 53.00224 -12.55183 34779 ft 542 kts 93°
2026-04-16 01:29 53.00112 -12.42584 34781 ft 542 kts 93°
2026-04-16 01:30 53.00022 -12.30138 34781 ft 543 kts 92°
2026-04-16 01:30 52.99933 -12.17601 34785 ft 543 kts 92°
2026-04-16 01:31 52.99831 -12.05024 34787 ft 543 kts 93°
2026-04-16 01:31 52.99713 -11.92477 34788 ft 544 kts 93°
2026-04-16 01:32 52.99582 -11.79928 34793 ft 544 kts 93°
2026-04-16 01:32 52.99437 -11.67371 34797 ft 544 kts 93°
2026-04-16 01:33 52.99281 -11.54903 34798 ft 544 kts 93°
2026-04-16 01:33 52.99109 -11.42332 34798 ft 545 kts 93°
2026-04-16 01:34 52.98924 -11.29752 34801 ft 545 kts 94°
2026-04-16 01:34 52.98688 -11.17169 34800 ft 545 kts 94°
2026-04-16 01:35 52.98431 -11.04598 34809 ft 545 kts 94°
2026-04-16 01:35 52.98194 -10.92014 34805 ft 545 kts 94°
2026-04-16 01:36 52.97958 -10.79427 34808 ft 546 kts 94°
2026-04-16 01:36 52.97711 -10.66915 34812 ft 546 kts 94°
2026-04-16 01:37 52.97446 -10.54326 34811 ft 546 kts 94°
2026-04-16 01:37 52.97168 -10.41732 34818 ft 546 kts 94°
2026-04-16 01:38 52.96876 -10.29143 34822 ft 546 kts 94°
2026-04-16 01:38 52.96572 -10.16560 34829 ft 546 kts 94°
2026-04-16 01:39 52.96253 -10.03972 34826 ft 546 kts 95°
2026-04-16 01:39 52.95922 -9.91386 34826 ft 546 kts 95°
2026-04-16 01:40 52.95535 -9.78802 34827 ft 545 kts 95°
2026-04-16 01:40 52.95136 -9.66330 34825 ft 545 kts 95°
2026-04-16 01:41 52.94754 -9.53765 34824 ft 545 kts 95°
2026-04-16 01:41 52.94372 -9.41199 34827 ft 545 kts 95°
2026-04-16 01:42 52.93977 -9.28635 34831 ft 545 kts 95°
2026-04-16 01:42 52.93566 -9.16075 34835 ft 545 kts 95°
2026-04-16 01:43 52.93142 -9.03527 34841 ft 546 kts 95°
2026-04-16 01:43 52.92705 -8.90969 34840 ft 546 kts 96°
2026-04-16 01:44 52.92257 -8.78497 34838 ft 545 kts 96°
2026-04-16 01:44 52.91792 -8.65931 34836 ft 546 kts 96°
2026-04-16 01:45 52.91315 -8.53387 34833 ft 545 kts 96°
2026-04-16 01:45 52.90864 -8.42710 34825 ft 545 kts 96°
2026-04-16 01:46 52.90314 -8.30172 34827 ft 545 kts 96°
2026-04-16 01:46 52.89785 -8.17631 34831 ft 546 kts 96°
2026-04-16 01:47 52.89259 -8.05088 34834 ft 546 kts 96°
2026-04-16 01:47 52.88723 -7.92627 34836 ft 546 kts 96°
2026-04-16 01:48 52.88169 -7.80077 34841 ft 546 kts 96°
2026-04-16 01:48 52.87600 -7.67523 34842 ft 546 kts 96°
2026-04-16 01:49 52.87016 -7.54955 34844 ft 546 kts 97°
2026-04-16 01:49 52.86421 -7.42420 34845 ft 546 kts 97°
2026-04-16 01:50 52.85812 -7.29867 34851 ft 546 kts 97°
2026-04-16 01:50 52.85195 -7.17420 34851 ft 546 kts 97°
2026-04-16 01:51 52.84522 -7.04902 34851 ft 546 kts 97°
2026-04-16 01:51 52.83829 -6.92396 34856 ft 546 kts 97°
2026-04-16 01:52 52.83156 -6.79885 34850 ft 546 kts 97°
2026-04-16 01:52 52.82485 -6.67389 34859 ft 546 kts 97°
2026-04-16 01:53 52.81801 -6.54897 34859 ft 545 kts 97°
2026-04-16 01:53 52.81102 -6.42404 34859 ft 545 kts 97°
2026-04-16 01:54 52.80393 -6.29994 34859 ft 545 kts 97°
2026-04-16 01:54 52.79668 -6.17519 34862 ft 545 kts 98°
2026-04-16 01:55 52.78929 -6.05042 34867 ft 545 kts 98°
2026-04-16 01:55 52.78177 -5.92583 34877 ft 545 kts 98°
2026-04-16 01:56 52.77411 -5.80103 34884 ft 546 kts 98°
2026-04-16 01:56 52.76592 -5.67632 34892 ft 545 kts 99°
2026-04-16 01:57 52.75757 -5.55185 34899 ft 546 kts 98°
2026-04-16 01:57 52.74977 -5.42805 34914 ft 546 kts 97°
2026-04-16 01:58 52.74363 -5.30299 34917 ft 546 kts 96°
2026-04-16 01:58 52.73803 -5.17803 34923 ft 546 kts 96°
2026-04-16 01:59 52.73221 -5.05289 34921 ft 546 kts 97°
2026-04-16 01:59 52.72614 -4.92802 34923 ft 546 kts 97°
2026-04-16 02:00 52.71990 -4.80328 34934 ft 546 kts 97°
2026-04-16 02:00 52.71354 -4.67856 34937 ft 545 kts 97°
2026-04-16 02:01 52.70706 -4.55396 34937 ft 545 kts 97°
2026-04-16 02:01 52.70051 -4.43042 34937 ft 545 kts 97°
2026-04-16 02:02 52.69376 -4.30581 34941 ft 544 kts 97°
2026-04-16 02:02 52.68692 -4.18179 34943 ft 543 kts 97°
2026-04-16 02:03 52.67978 -4.05783 34947 ft 542 kts 98°
2026-04-16 02:03 52.67216 -3.93441 34948 ft 541 kts 98°
2026-04-16 02:04 52.66112 -3.75041 34946 ft 539 kts 98°
2026-04-16 02:04 52.65378 -3.62752 34946 ft 539 kts 98°
2026-04-16 02:05 52.64630 -3.50474 34949 ft 538 kts 98°
2026-04-16 02:05 52.63870 -3.38214 34943 ft 537 kts 98°
2026-04-16 02:06 52.63098 -3.25982 34950 ft 537 kts 98°
2026-04-16 02:06 52.62313 -3.13751 34951 ft 537 kts 98°
2026-04-16 02:07 52.61520 -3.01599 34948 ft 537 kts 98°
2026-04-16 02:07 52.60712 -2.89402 34945 ft 536 kts 98°
2026-04-16 02:08 52.59889 -2.77194 34964 ft 537 kts 99°
2026-04-16 02:08 52.59016 -2.65002 34965 ft 536 kts 99°
2026-04-16 02:09 52.58125 -2.52827 34961 ft 536 kts 99°
2026-04-16 02:09 52.57395 -2.42706 34970 ft 536 kts 99°
2026-04-16 02:10 52.56524 -2.30534 34974 ft 536 kts 99°
2026-04-16 02:10 52.55645 -2.18375 34976 ft 536 kts 99°
2026-04-16 02:11 52.54754 -2.06216 34979 ft 535 kts 99°
2026-04-16 02:11 52.53850 -1.94085 34989 ft 535 kts 99°
2026-04-16 02:12 52.52941 -1.82044 34990 ft 534 kts 99°
2026-04-16 02:12 52.52014 -1.69943 34990 ft 534 kts 99°
2026-04-16 02:13 52.51075 -1.57854 34992 ft 533 kts 99°
2026-04-16 02:13 52.50126 -1.45797 34993 ft 533 kts 100°
2026-04-16 02:14 52.49163 -1.33726 34993 ft 532 kts 100°
2026-04-16 02:14 52.48191 -1.21692 34998 ft 532 kts 100°
2026-04-16 02:15 52.47163 -1.09673 35005 ft 531 kts 101°
2026-04-16 02:15 52.46127 -0.97674 35012 ft 531 kts 100°
2026-04-16 02:16 52.45114 -0.85733 35017 ft 531 kts 100°
2026-04-16 02:16 52.44094 -0.73710 35008 ft 531 kts 100°
2026-04-16 02:17 52.43064 -0.61708 35007 ft 531 kts 101°
2026-04-16 02:17 52.42020 -0.49729 35007 ft 531 kts 101°
2026-04-16 02:18 52.40970 -0.37820 35010 ft 531 kts 101°
2026-04-16 02:18 52.39901 -0.25842 35019 ft 531 kts 101°
2026-04-16 02:19 52.38820 -0.13869 35030 ft 531 kts 101°
2026-04-16 02:19 52.37728 -0.01912 35043 ft 531 kts 101°
2026-04-16 02:20 52.36623 0.10036 35049 ft 531 kts 101°
2026-04-16 02:20 52.35478 0.21976 35050 ft 530 kts 102°
2026-04-16 02:21 52.34303 0.33889 35051 ft 530 kts 101°
2026-04-16 02:21 52.33155 0.45733 35053 ft 530 kts 101°
2026-04-16 02:22 52.32005 0.57645 35054 ft 530 kts 101°
2026-04-16 02:22 52.30847 0.69532 35071 ft 530 kts 101°
2026-04-16 02:23 52.29673 0.81426 35067 ft 529 kts 102°
2026-04-16 02:23 52.28488 0.93297 35066 ft 529 kts 102°
2026-04-16 02:24 52.27292 1.05147 35067 ft 528 kts 102°
2026-04-16 02:24 52.26087 1.16971 35076 ft 528 kts 102°
2026-04-16 02:25 52.24880 1.28689 35083 ft 527 kts 102°
2026-04-16 02:25 52.23654 1.40479 35088 ft 527 kts 102°
2026-04-16 02:26 52.22403 1.52261 35097 ft 526 kts 102°
2026-04-16 02:26 52.21103 1.64004 35097 ft 526 kts 102°
2026-04-16 02:27 52.19820 1.75737 35101 ft 525 kts 102°
2026-04-16 02:27 52.18557 1.87381 35105 ft 525 kts 102°
2026-04-16 02:28 52.17277 1.99120 35109 ft 525 kts 102°
2026-04-16 02:28 52.15985 2.10833 35110 ft 525 kts 102°
2026-04-16 02:29 52.14679 2.22553 35115 ft 525 kts 103°
2026-04-16 02:29 52.13364 2.34248 35115 ft 525 kts 103°
2026-04-16 02:30 52.12092 2.45947 35119 ft 526 kts 98°
2026-04-16 02:30 52.12316 2.57830 35122 ft 528 kts 78°
2026-04-16 02:31 52.14597 2.69068 35124 ft 527 kts 66°
2026-04-16 02:31 52.17331 2.80152 35128 ft 528 kts 69°
2026-04-16 02:32 52.19687 2.91488 35124 ft 528 kts 72°
2026-04-16 02:32 52.21821 3.02938 35123 ft 528 kts 72°
2026-04-16 02:33 52.23857 3.14430 35120 ft 528 kts 76°
2026-04-16 02:33 52.24645 3.26276 35118 ft 525 kts 94°
2026-04-16 02:34 52.23254 3.37865 35113 ft 519 kts 114°
2026-04-16 02:34 52.20258 3.48526 35110 ft 516 kts 120°
2026-04-16 02:35 52.17252 3.59067 35116 ft 518 kts 116°
2026-04-16 02:35 52.14513 3.69937 35122 ft 518 kts 115°
2026-04-16 02:36 52.11890 3.80872 35124 ft 519 kts 114°
2026-04-16 02:36 52.09261 3.91797 35133 ft 518 kts 115°
2026-04-16 02:37 52.06607 4.02703 35138 ft 518 kts 115°
2026-04-16 02:37 52.03863 4.13515 35134 ft 515 kts 120°
2026-04-16 02:38 52.00329 4.23584 35129 ft 512 kts 126°
2026-04-16 02:38 51.96623 4.33360 35125 ft 512 kts 125°
2026-04-16 02:39 51.92985 4.43288 35126 ft 512 kts 124°
2026-04-16 02:39 51.89405 4.53264 35126 ft 512 kts 124°
2026-04-16 02:40 51.85824 4.63242 35131 ft 512 kts 124°
2026-04-16 02:40 51.82236 4.73188 35140 ft 512 kts 124°
2026-04-16 02:41 51.78633 4.83122 35153 ft 512 kts 124°
2026-04-16 02:41 51.75027 4.93024 35155 ft 511 kts 124°
2026-04-16 02:42 51.71438 5.02841 35153 ft 511 kts 124°
2026-04-16 02:42 51.67815 5.12712 35156 ft 511 kts 124°
2026-04-16 02:43 51.64189 5.22554 35149 ft 511 kts 124°
2026-04-16 02:43 51.60523 5.32344 35153 ft 510 kts 125°
2026-04-16 02:44 51.56858 5.42113 35152 ft 510 kts 124°
2026-04-16 02:44 51.53204 5.51893 35153 ft 510 kts 124°
2026-04-16 02:45 51.49556 5.61648 35152 ft 509 kts 124°
2026-04-16 02:45 51.45904 5.71377 35149 ft 509 kts 124°
2026-04-16 02:46 51.42245 5.81082 35145 ft 509 kts 125°
2026-04-16 02:46 51.38578 5.90771 35149 ft 508 kts 125°
2026-04-16 02:47 51.34932 6.00369 35150 ft 508 kts 125°
2026-04-16 02:47 51.31252 6.10021 35149 ft 507 kts 125°
2026-04-16 02:48 51.27570 6.19640 35150 ft 507 kts 125°
2026-04-16 02:48 51.23887 6.29226 35149 ft 507 kts 125°
2026-04-16 02:49 51.20188 6.38803 35150 ft 506 kts 126°
2026-04-16 02:49 51.16453 6.48321 35163 ft 506 kts 126°
2026-04-16 02:50 51.12729 6.57830 35158 ft 506 kts 126°
2026-04-16 02:50 51.09035 6.67291 35155 ft 506 kts 126°
2026-04-16 02:51 51.05319 6.76790 35157 ft 506 kts 126°
2026-04-16 02:51 51.01593 6.86280 35164 ft 506 kts 126°
2026-04-16 02:52 50.99732 6.91005 34991 ft 505 kts 126°
2026-04-16 02:52 50.97883 6.95696 34339 ft 500 kts 126°
2026-04-16 02:52 50.96028 7.00388 33652 ft 502 kts 126°
2026-04-16 02:52 50.94164 7.05088 33012 ft 504 kts 126°
2026-04-16 02:53 50.92291 7.09805 32388 ft 506 kts 126°
2026-04-16 02:53 50.90411 7.14529 31796 ft 508 kts 126°
2026-04-16 02:53 50.88497 7.19189 31616 ft 503 kts 127°
2026-04-16 02:53 50.86555 7.23799 31424 ft 506 kts 127°
2026-04-16 02:54 50.84608 7.28442 30810 ft 504 kts 127°
2026-04-16 02:54 50.82680 7.33102 29026 ft 510 kts 126°
2026-04-16 02:54 50.80762 7.37809 27708 ft 505 kts 126°
2026-04-16 02:54 50.78899 7.42426 26093 ft 493 kts 125°
2026-04-16 02:55 50.77099 7.46900 24632 ft 483 kts 125°
2026-04-16 02:55 50.75306 7.51326 23123 ft 473 kts 125°
2026-04-16 02:55 50.73541 7.55630 21697 ft 459 kts 125°
2026-04-16 02:55 50.71829 7.59801 20360 ft 446 kts 125°
2026-04-16 02:56 50.70170 7.63849 19094 ft 433 kts 125°
2026-04-16 02:56 50.68561 7.67785 17759 ft 422 kts 125°
2026-04-16 02:56 50.66991 7.71623 16367 ft 411 kts 125°
2026-04-16 02:56 50.65461 7.75370 15040 ft 402 kts 124°
2026-04-16 02:57 50.63960 7.79037 13738 ft 394 kts 125°
2026-04-16 02:57 50.62423 7.82556 12413 ft 384 kts 127°
2026-04-16 02:57 50.60878 7.85924 11160 ft 375 kts 127°
2026-04-16 02:57 50.59357 7.89195 10008 ft 367 kts 127°
2026-04-16 02:58 50.57913 7.92308 9718 ft 334 kts 127°
2026-04-16 02:58 50.56613 7.95136 9570 ft 304 kts 127°
2026-04-16 02:58 50.55414 7.97749 9119 ft 289 kts 127°
2026-04-16 02:58 50.54246 8.00294 8418 ft 286 kts 127°
2026-04-16 02:59 50.53091 8.02812 7751 ft 282 kts 127°
2026-04-16 02:59 50.52332 8.04464 7299 ft 280 kts 127°
2026-04-16 02:59 50.51196 8.06938 6666 ft 277 kts 127°
2026-04-16 02:59 50.50086 8.09355 6217 ft 269 kts 127°
2026-04-16 03:00 50.48617 8.12548 5726 ft 270 kts 126°
2026-04-16 03:00 50.47890 8.14128 5467 ft 269 kts 126°
2026-04-16 03:00 50.46800 8.16496 5253 ft 268 kts 126°
2026-04-16 03:00 50.45701 8.18880 5209 ft 270 kts 126°
2026-04-16 03:01 50.44602 8.21264 5198 ft 270 kts 127°
2026-04-16 03:01 50.43500 8.23650 5201 ft 270 kts 126°
2026-04-16 03:01 50.42396 8.26041 5211 ft 271 kts 127°
2026-04-16 03:01 50.41292 8.28428 5203 ft 270 kts 127°
2026-04-16 03:02 50.40188 8.30814 5207 ft 270 kts 127°
2026-04-16 03:02 50.39082 8.33201 5206 ft 270 kts 127°
2026-04-16 03:02 50.37975 8.35589 5206 ft 270 kts 127°
2026-04-16 03:02 50.36870 8.37973 5199 ft 270 kts 127°
2026-04-16 03:03 50.35765 8.40352 5202 ft 270 kts 127°
2026-04-16 03:03 50.34671 8.42703 5206 ft 270 kts 127°
2026-04-16 03:03 50.33578 8.45053 5205 ft 270 kts 127°
2026-04-16 03:03 50.32457 8.47461 5210 ft 270 kts 127°
2026-04-16 03:04 50.31348 8.49841 5211 ft 270 kts 127°
2026-04-16 03:04 50.30245 8.52204 5205 ft 270 kts 127°
2026-04-16 03:04 50.29137 8.54579 5205 ft 270 kts 127°
2026-04-16 03:04 50.28032 8.56944 5208 ft 269 kts 127°
2026-04-16 03:05 50.26926 8.59306 5207 ft 269 kts 127°
2026-04-16 03:05 50.25820 8.61668 5209 ft 269 kts 127°
2026-04-16 03:05 50.24716 8.64024 5211 ft 269 kts 127°
2026-04-16 03:05 50.23613 8.66377 5148 ft 266 kts 127°
2026-04-16 03:06 50.22516 8.68713 4727 ft 267 kts 128°
2026-04-16 03:06 50.21421 8.71046 4357 ft 266 kts 127°
2026-04-16 03:06 50.19156 8.75520 3610 ft 263 kts 135°
2026-04-16 03:07 50.17890 8.77580 3232 ft 262 kts 135°
2026-04-16 03:07 50.16603 8.79591 2843 ft 260 kts 140°
2026-04-16 03:07 50.15103 8.81099 2534 ft 253 kts 162°
2026-04-16 03:07 50.13429 8.81485 2478 ft 237 kts 188°
2026-04-16 03:08 50.11981 8.80762 2481 ft 206 kts 213°
2026-04-16 03:08 50.11061 8.79324 2410 ft 171 kts 244°
2026-04-16 03:08 50.10559 8.77701 2321 ft 164 kts 245°
2026-04-16 03:08 50.10038 8.76159 1682 ft 158 kts 243°
2026-04-16 03:09 50.09559 8.74630 1419 ft 158 kts 247°
2026-04-16 03:09 50.09198 8.73004 1457 ft 159 kts 253°
2026-04-16 03:09 50.08880 8.71350 1615 ft 160 kts 253°
2026-04-16 03:09 50.08560 8.69703 1794 ft 159 kts 253°
2026-04-16 03:10 50.08184 8.68088 2004 ft 159 kts 249°
2026-04-16 03:10 50.07754 8.66500 2124 ft 160 kts 248°
2026-04-16 03:10 50.07329 8.64906 2015 ft 158 kts 249°
2026-04-16 03:10 50.06907 8.63313 1735 ft 158 kts 248°
2026-04-16 03:11 50.06504 8.61723 1565 ft 158 kts 254°
2026-04-16 03:11 50.06173 8.60080 1296 ft 159 kts 252°
2026-04-16 03:11 50.05795 8.58457 1102 ft 160 kts 249°
2026-04-16 03:11 50.05407 8.56859 877 ft 161 kts 249°
2026-04-16 03:12 50.05017 8.55241 641 ft 159 kts 249°
2026-04-16 03:12 50.04652 8.53693 421 ft 146 kts 249°
2026-04-16 03:12 50.04316 8.52311 363 ft 117 kts 249°
2026-04-16 03:12 50.04111 8.51412 364 ft 72 kts 249°
2026-04-16 03:13 50.03968 8.50815 365 ft 50 kts 249°
2026-04-16 03:13 50.03886 8.50508 363 ft 21 kts 242°
2026-04-16 03:13 50.03791 8.50320 366 ft 23 kts 223°
2026-04-16 03:13 50.03659 8.50184 362 ft 18 kts 184°
2026-04-16 03:14 50.03617 8.50228 363 ft 1 kts 93°
2026-04-16 03:14 50.03629 8.50282 360 ft 11 kts 71°
2026-04-16 03:14 50.03667 8.50441 364 ft 21 kts 70°
2026-04-16 03:14 50.03728 8.50700 363 ft 27 kts 70°
2026-04-16 03:15 50.03748 8.50974 364 ft 25 kts 110°
2026-04-16 03:15 50.03676 8.51208 366 ft 23 kts 116°
2026-04-16 03:15 50.03607 8.51426 363 ft 22 kts 115°
2026-04-16 03:15 50.03545 8.51630 363 ft 16 kts 115°
2026-04-16 03:16 50.03540 8.51645 364 ft 0 kts 116°
2026-04-16 03:18 50.03524 8.51707 361 ft 15 kts 106°
2026-04-16 03:18 50.03112 8.56348 365 ft 0 kts 64°
2026-04-16 03:18 50.03117 8.56364 364 ft 8 kts 64°
2026-04-16 03:18 50.03251 8.57535 364 ft 0 kts 203°
2026-04-16 03:19 50.03250 8.57535 364 ft 0 kts 202°
2026-04-16 03:19 50.03245 8.57537 365 ft 3 kts 178°
2026-04-16 03:19 50.03215 8.57584 360 ft 0 kts 121°
2026-04-16 03:20 50.03157 8.56481 366 ft 0 kts 250°
2026-04-16 03:20 50.03133 8.56446 363 ft 1 kts 194°
2026-04-16 03:20 50.03123 8.56456 364 ft 5 kts 156°
2026-04-16 03:20 50.03085 8.56501 364 ft 5 kts 113°
2026-04-16 03:21 50.03090 8.56537 364 ft 4 kts 67°
2026-04-16 03:21 50.03102 8.56586 362 ft 7 kts 70°
2026-04-16 03:21 50.03123 8.56673 361 ft 9 kts 69°
2026-04-16 03:21 50.03135 8.56722 363 ft 2 kts 68°
2026-04-16 03:22 50.03139 8.56735 364 ft 0 kts 68°